Regional Weather Roundup
Issued by NWS

Home | Current Version | Previous Version | Text Only | Print | Product List | Glossary Off
Versions: 1 2 3 4 5 6 7 8 9 10 11 12 13 14 15 16 17 18 19 20 21 22 23 24 25 26 27 28 29 30 31 32 33 34 35 36 37 38 39 40 41 42 43 44 45 46 47 48 49 50

588
ASUS45 KABQ 282301
RWRNM
NEW MEXICO REGIONAL WEATHER ROUNDUP
NATIONAL WEATHER SERVICE ALBUQUERQUE NM
500 PM MDT THU JUL 28 2016

NOTE: "FAIR" MEANS FEW OR NO CLOUDS BELOW 12,000 FEET AGL WITH NO
       SIGNIFICANT WEATHER OR OBSTRUCTIONS TO VISION.

      THIS PRODUCT IS RELEASED AS TWO VERSIONS.  ONE VERSION NEAR
      THE TOP OF THE HOUR CONTAINING PRELIMINARY DATA FROM ALBUQUERQUE
      AND OTHER STATIONS.  A FINAL VERSION WITH ADDITIONAL DATA IS
      ISSUED ABOUT 10 MINUTES AFTER THE HOUR.

NMZ501-503-504-510>518-290000-
NORTHWEST PLATEAU/NORTHCENTRAL MOUNTAINS

CITY           SKY/WX    TMP DP  RH WIND       PRES   REMARKS
FARMINGTON     FAIR      97  33  10 N10       30.08F
LOS ALAMOS     FAIR      85  34  16 NW5       30.29R
SANTA FE       FAIR      92  35  13 W8        30.19F
TAOS           FAIR      81  39  22 SW5       30.28F
ANGEL FIRE     FAIR      78  35  21 W20G25    30.35S

$$
NMZ402-403-502-505>509-290000-
WESTCENTRAL MOUNTAINS/SOUTHWEST MOUNTAINS

CITY           SKY/WX    TMP DP  RH WIND       PRES   REMARKS
GALLUP         FAIR      88  38  17 SE17G25   30.19S
GRANTS         FAIR      81  39  22 NW15G29   30.29F
SILVER CITY    FAIR      92  48  22 E6        30.12F

$$
NMZ407-409-411-412-290000-
SOUTHERN DESERTS

CITY           SKY/WX    TMP DP  RH WIND       PRES   REMARKS
LORDSBURG      FAIR      97  50  20 SW5       30.01F
DEMING         FAIR      98  49  18 VRB6G17   30.01F HX  95
LAS CRUCES     FAIR      97  44  16 SE8G16    30.05F
ALAMOGORDO     FAIR      95  48  20 W6        30.02F
T OR C         FAIR      94  48  20 S3        30.06F

$$
NMZ519>523-290000-
CENTRAL VALLEYS/CENTRAL HIGHLANDS

CITY           SKY/WX    TMP DP  RH WIND       PRES   REMARKS
ALBUQUERQUE    FAIR      95  45  17 E16G29    30.10F
DOUBLE EAGLE   PTSUNNY   93  39  15 VRB7      30.16F
MORIARTY ARPT  FAIR      86  41  20 E5        30.21F
CLINES CORNERS FAIR      80  52  37 SE6       30.28F
BELEN          FAIR      97  36  12 NE6       30.10S
SOCORRO        FAIR      95  44  16 S3        30.08S

$$
NMZ524>526-539-540-290000-
SOUTHCENTRAL MOUNTAINS

CITY           SKY/WX    TMP DP  RH WIND       PRES   REMARKS
RUIDOSO          N/A     82  41  23 S8G20     30.30S

$$
NMZ527>531-290000-
NORTHEAST HIGHLANDS/NORTHEAST PLAINS

CITY           SKY/WX    TMP DP  RH WIND       PRES   REMARKS
LAS VEGAS      FAIR      83  33  16 SW6       30.27R
RATON          PTSUNNY   79  45  29 NE18G26   30.19R
CLAYTON        FAIR      87  50  27 S14       30.10R

$$
NMZ532>537-290000-
EASTCENTRAL PLAINS

CITY           SKY/WX    TMP DP  RH WIND       PRES   REMARKS
TUCUMCARI      FAIR      97  44  16 S3        30.00F
CANNON AFB     NOT AVBL
CLOVIS AIRPORT FAIR      91  54  27 S9        30.06F

$$
NMZ028-029-538-290000-
SOUTHEAST PLAINS

CITY           SKY/WX    TMP DP  RH WIND       PRES   REMARKS
ROSWELL        FAIR      96  53  23 SE5       30.00F
ARTESIA        FAIR      97  57  26 SE9       29.99F HX  95
CARLSBAD       FAIR      94  57  28 SE13      29.98F
HOBBS          MOSUNNY   91  54  27 E10       30.03F


$$




USA.gov is the U.S. government's official web portal to all federal, state and local government web resources and services.